When you browse on this site, cookies collect data to enhance your experience and personalize the content and advertising you see.
Visit our Privacy Policy to learn more. By continuing to use the site, you agree to this use of cookies and data.
  • In Latvia
  • List of Countries
  • For 7 days
  • Water Temperature
  • Weather Map
  • Weather Widgets
  • user-avatar
    Login

    Hourly Weather Mayrhofen

    Today, 7 April, Tuesday

    Time Temperature Precipitation Wind Pressure Humidity
    00:00 +1°C° 0 mm 1 mps 622 mmHg 75%
    01:00 +1°C° 0 mm 1 mps 622 mmHg 76%
    02:00 +1°C° 0 mm 1 mps 622 mmHg 76%
    03:00 +1°C° 0 mm 1 mps 622 mmHg 76%
    04:00 +1°C° 0 mm 1 mps 622 mmHg 76%
    05:00 +2°C° 0 mm 1 mps 623 mmHg 76%
    06:00 +2°C° 0 mm 1 mps 623 mmHg 75%
    07:00 +3°C° 0 mm 1 mps 624 mmHg 75%
    08:00 +5°C° 0 mm 1 mps 624 mmHg 70%
    09:00 +7°C° 0 mm 1 mps 625 mmHg 64%
    10:00 +10°C° 0 mm 1 mps 626 mmHg 58%
    11:00 +10°C° 0 mm 1 mps 626 mmHg 54%
    12:00 +11°C° 0 mm 1 mps 626 mmHg 51%
    13:00 +12°C° 0 mm 1 mps 626 mmHg 47%
    14:00 +12°C° 0 mm 1 mps 626 mmHg 46%
    15:00 +12°C° 0 mm 1 mps 625 mmHg 46%
    16:00 +12°C° 0 mm 1 mps 625 mmHg 45%
    17:00 +9°C° 0 mm 1 mps 624 mmHg 57%
    18:00 +7°C° 0 mm 1 mps 623 mmHg 69%
    19:00 +4°C° 0 mm 1 mps 622 mmHg 80%
    20:00 +4°C° 0 mm 1 mps 623 mmHg 81%
    21:00 +3°C° 0 mm 1 mps 623 mmHg 82%
    22:00 +3°C° 0 mm 1 mps 623 mmHg 82%
    23:00 +3°C° 0 mm 1 mps 623 mmHg 83%

    Tomorrow, 8 April, Wednesday

    Time Temperature Precipitation Wind Pressure Humidity
    00:00 +2°C° 0 mm 1 mps 623 mmHg 84%
    01:00 +1°C° 0 mm 2 mps 623 mmHg 85%
    02:00 +2°C° 0 mm 1 mps 622 mmHg 86%
    03:00 +2°C° 0 mm 1 mps 622 mmHg 86%
    04:00 +2°C° 0 mm 1 mps 622 mmHg 87%
    05:00 +2°C° 0 mm 1 mps 622 mmHg 84%
    06:00 +3°C° 0 mm 1 mps 623 mmHg 81%
    07:00 +4°C° 0 mm 1 mps 623 mmHg 79%
    08:00 +6°C° 0 mm 1 mps 623 mmHg 70%
    09:00 +8°C° 0 mm 1 mps 624 mmHg 62%
    10:00 +11°C° 0 mm 1 mps 624 mmHg 54%
    11:00 +11°C° 0 mm 1 mps 624 mmHg 51%
    12:00 +12°C° 0 mm 1 mps 624 mmHg 48%
    13:00 +13°C° 0 mm 1 mps 624 mmHg 45%
    14:00 +12°C° 0 mm 1 mps 624 mmHg 48%
    15:00 +12°C° 0 mm 1 mps 623 mmHg 50%
    16:00 +12°C° 0 mm 1 mps 623 mmHg 53%
    17:00 +9°C° 0.2 mm 1 mps 622 mmHg 64%
    18:00 +7°C° 0.2 mm 1 mps 621 mmHg 75%
    19:00 +5°C° 0.2 mm 1 mps 620 mmHg 86%
    20:00 +4°C° 0.1 mm 0 mps 620 mmHg 88%
    21:00 +3°C° 0.1 mm 0 mps 621 mmHg 90%
    22:00 +3°C° 0.1 mm 0 mps 621 mmHg 92%
    23:00 +3°C° 0.1 mm 0 mps 621 mmHg 92%

    Day after tomorrow, 9 April, Thursday

    Time Temperature Precipitation Wind Pressure Humidity
    00:00 +3°C° 0.1 mm 0 mps 621 mmHg 93%
    01:00 +3°C° 0.1 mm 0 mps 621 mmHg 94%
    02:00 +4°C° 0.1 mm 1 mps 621 mmHg 94%
    03:00 +4°C° 0.1 mm 1 mps 620 mmHg 94%
    04:00 +4°C° 0.1 mm 1 mps 620 mmHg 94%
    05:00 +4°C° 0.1 mm 1 mps 620 mmHg 93%
    06:00 +5°C° 0.1 mm 1 mps 621 mmHg 92%
    07:00 +5°C° 0.1 mm 1 mps 621 mmHg 91%
    08:00 +6°C° 0.1 mm 1 mps 621 mmHg 85%
    09:00 +8°C° 0.1 mm 1 mps 622 mmHg 79%
    10:00 +9°C° 0.1 mm 1 mps 622 mmHg 73%
    11:00 +10°C° 0.2 mm 1 mps 622 mmHg 70%
    12:00 +10°C° 0.2 mm 1 mps 622 mmHg 68%
    13:00 +11°C° 0.2 mm 1 mps 622 mmHg 65%
    14:00 +10°C° 0.4 mm 2 mps 622 mmHg 68%
    15:00 +9°C° 0.4 mm 2 mps 622 mmHg 70%
    16:00 +9°C° 0.4 mm 2 mps 621 mmHg 72%
    17:00 +8°C° 0.3 mm 2 mps 621 mmHg 79%
    18:00 +6°C° 0.3 mm 2 mps 620 mmHg 86%
    19:00 +6°C° 0.3 mm 1 mps 620 mmHg 93%
    20:00 +5°C° 0 mm 1 mps 620 mmHg 93%
    21:00 +5°C° 0 mm 1 mps 621 mmHg 94%
    22:00 +5°C° 0 mm 1 mps 621 mmHg 94%
    23:00 +4°C° 0 mm 1 mps 621 mmHg 94%

    10 April, Friday

    Time Temperature Precipitation Wind Pressure Humidity
    00:00 +4°C° 0 mm 1 mps 620 mmHg 94%
    01:00 +3°C° 0 mm 1 mps 620 mmHg 95%
    02:00 +3°C° 0 mm 1 mps 620 mmHg 94%
    03:00 +2°C° 0 mm 1 mps 620 mmHg 93%
    04:00 +2°C° 0 mm 1 mps 619 mmHg 92%
    05:00 +3°C° 0 mm 1 mps 620 mmHg 88%
    06:00 +3°C° 0 mm 0 mps 621 mmHg 84%
    07:00 +4°C° 0 mm 0 mps 621 mmHg 81%
    08:00 +6°C° 0 mm 0 mps 622 mmHg 74%
    09:00 +9°C° 0 mm 1 mps 622 mmHg 67%
    10:00 +10°C° 0 mm 1 mps 623 mmHg 60%
    11:00 +11°C° 0 mm 1 mps 623 mmHg 56%
    12:00 +12°C° 0 mm 1 mps 623 mmHg 51%
    13:00 +13°C° 0 mm 1 mps 623 mmHg 47%
    14:00 +13°C° 0 mm 1 mps 623 mmHg 48%
    15:00 +13°C° 0 mm 1 mps 622 mmHg 50%
    16:00 +13°C° 0 mm 1 mps 622 mmHg 51%
    17:00 +11°C° 0 mm 1 mps 621 mmHg 61%
    18:00 +9°C° 0 mm 1 mps 620 mmHg 70%
    19:00 +7°C° 0 mm 1 mps 620 mmHg 80%
    20:00 +6°C° 0 mm 1 mps 620 mmHg 82%
    21:00 +4°C° 0 mm 0 mps 620 mmHg 85%
    22:00 +4°C° 0 mm 0 mps 620 mmHg 87%
    23:00 +3°C° 0 mm 0 mps 620 mmHg 88%

    11 April, Saturday

    Time Temperature Precipitation Wind Pressure Humidity
    00:00 +3°C° 0 mm 0 mps 619 mmHg 89%
    01:00 +3°C° 0 mm 0 mps 619 mmHg 90%
    02:00 +3°C° 0 mm 0 mps 619 mmHg 90%
    03:00 +3°C° 0 mm 0 mps 619 mmHg 89%
    04:00 +2°C° 0 mm 0 mps 619 mmHg 89%
    05:00 +4°C° 0 mm 0 mps 619 mmHg 85%
    06:00 +5°C° 0 mm 0 mps 620 mmHg 81%
    07:00 +6°C° 0 mm 0 mps 620 mmHg 77%
    08:00 +9°C° 0 mm 1 mps 621 mmHg 69%
    09:00 +11°C° 0 mm 1 mps 622 mmHg 60%
    10:00 +12°C° 0 mm 1 mps 622 mmHg 52%
    11:00 +13°C° 0 mm 1 mps 622 mmHg 49%
    12:00 +14°C° 0 mm 1 mps 622 mmHg 46%
    13:00 +14°C° 0 mm 1 mps 622 mmHg 43%
    14:00 +14°C° 0.1 mm 1 mps 622 mmHg 46%
    15:00 +13°C° 0.1 mm 1 mps 621 mmHg 48%
    16:00 +13°C° 0.1 mm 1 mps 621 mmHg 51%
    17:00 +11°C° 0.2 mm 1 mps 620 mmHg 61%
    18:00 +9°C° 0.2 mm 1 mps 620 mmHg 71%
    19:00 +8°C° 0.2 mm 1 mps 619 mmHg 81%
    20:00 +6°C° 0.1 mm 0 mps 619 mmHg 82%
    21:00 +6°C° 0.1 mm 0 mps 619 mmHg 84%
    22:00 +6°C° 0.1 mm 0 mps 619 mmHg 86%
    23:00 +6°C° 0.1 mm 0 mps 619 mmHg 86%

    12 April, Sunday

    Time Temperature Precipitation Wind Pressure Humidity
    00:00 +6°C° 0.1 mm 0 mps 619 mmHg 87%
    01:00 +5°C° 0.1 mm 0 mps 619 mmHg 87%
    02:00 +6°C° 0.1 mm 1 mps 619 mmHg 89%
    03:00 +6°C° 0.1 mm 1 mps 618 mmHg 90%
    04:00 +5°C° 0.1 mm 1 mps 618 mmHg 92%
    05:00 +6°C° 0.2 mm 1 mps 618 mmHg 91%
    06:00 +6°C° 0.2 mm 1 mps 618 mmHg 89%
    07:00 +6°C° 0.2 mm 1 mps 618 mmHg 88%
    08:00 +8°C° 0.2 mm 1 mps 618 mmHg 83%
    09:00 +9°C° 0.2 mm 1 mps 618 mmHg 77%
    10:00 +9°C° 0.2 mm 2 mps 618 mmHg 72%
    11:00 +10°C° 0.3 mm 2 mps 618 mmHg 67%
    12:00 +10°C° 0.3 mm 2 mps 618 mmHg 62%
    13:00 +12°C° 0.3 mm 2 mps 618 mmHg 58%
    14:00 +12°C° 0.3 mm 2 mps 617 mmHg 57%
    15:00 +12°C° 0.3 mm 2 mps 617 mmHg 57%
    16:00 +10°C° 0.3 mm 2 mps 617 mmHg 56%
    17:00 +9°C° 0.1 mm 2 mps 616 mmHg 62%
    18:00 +7°C° 0.1 mm 2 mps 615 mmHg 68%
    19:00 +6°C° 0.1 mm 2 mps 614 mmHg 74%
    20:00 +5°C° 0 mm 2 mps 614 mmHg 75%
    21:00 +4°C° 0 mm 2 mps 614 mmHg 76%
    22:00 +4°C° 0 mm 2 mps 614 mmHg 77%
    23:00 +3°C° 0 mm 2 mps 614 mmHg 77%
    Show more